Temperature
26 23 22 23 24 24 24 23 22 22 22 21 20 19 18 18 18 18 18 18 18 18 18 18 18 19 18 18 18 18 18 18 18 18 18 17 17 16 16 16 15 15 15 15
23 23 25 26 26 26 24 23 22 22 22 21 19 19 19 18 18 18 18 18 18 18 18 18 18 18 19 18 18 19 18 18 18 18 17 17 16 16 16 15 15 15 15 14
24 25 28 28 27 26 24 23 22 21 21 20 20 19 18 18 18 18 18 19 19 19 18 18 18 18 18 18 19 19 19 18 18 18 17 17 16 16 15 15 15 15 14 14
25 27 28 27 27 25 23 24 24 22 20 18 19 18 18 18 18 18 18 19 19 19 19 19 19 18 19 19 19 19 19 18 18 18 17 17 16 16 15 15 15 14 14 14
25 27 27 27 27 26 23 23 22 21 18 18 18 18 18 18 18 18 18 19 19 19 19 19 19 19 19 19 19 19 19 18 18 18 17 17 16 16 15 15 15 14 14 14
26 27 27 27 27 26 24 21 20 17 17 18 18 18 18 18 19 19 19 19 20 20 20 20 20 20 19 19 19 19 19 19 18 18 17 17 16 16 15 15 15 14 14 14
26 26 26 27 26 25 24 20 19 19 17 18 18 19 18 19 20 20 20 20 21 20 20 20 20 20 20 20 19 19 19 19 18 18 17 17 16 16 15 15 15 14 14 13
24 24 26 26 26 24 24 21 20 20 19 18 18 18 19 21 21 22 22 21 21 21 21 21 21 21 20 20 20 20 19 19 18 18 17 17 16 16 16 15 15 14 14 14
23 24 26 26 26 25 24 22 21 19 19 18 19 19 20 22 21 21 21 21 21 21 21 21 21 21 21 21 20 20 20 19 19 18 18 17 17 16 16 15 15 14 14 14
24 24 25 26 25 24 24 23 19 19 19 19 19 19 19 21 21 21 21 21 22 22 22 22 22 22 21 21 21 20 20 19 19 18 18 17 17 16 16 16 15 15 14 14
24 23 23 23 23 24 23 22 20 17 18 18 18 19 21 20 21 21 21 22 23 23 23 23 22 22 22 21 21 21 20 20 19 19 18 18 17 17 16 16 16 15 15 14
23 20 21 22 23 23 23 22 19 19 19 18 18 19 22 21 22 22 23 23 24 24 24 23 23 23 22 22 21 21 21 20 20 19 18 18 17 17 17 16 16 15 15 14
23 20 20 21 21 22 22 22 20 18 17 17 18 20 22 22 22 23 24 24 24 24 24 24 23 23 22 22 22 21 21 20 20 19 19 18 18 17 17 17 16 15 15 14
23 20 20 21 21 21 22 22 22 19 18 18 19 21 22 22 22 23 24 25 25 25 24 24 24 23 23 22 22 22 21 21 20 20 19 19 18 18 17 17 16 16 15 15
22 22 23 22 22 22 22 23 23 21 20 19 20 21 21 21 21 23 25 25 25 25 24 24 24 23 23 23 22 22 21 21 20 20 20 19 19 18 17 17 16 16 15 15
21 22 22 22 23 23 23 23 23 22 22 21 21 21 21 21 23 23 24 24 24 25 25 25 24 24 23 23 22 22 22 21 21 20 20 19 19 18 18 17 17 16 16 15
20 20 20 20 22 22 21 22 22 21 20 20 20 19 19 20 20 21 23 24 24 25 25 25 24 24 24 23 23 22 22 21 21 20 20 19 19 18 18 17 17 16 16 16
19 19 18 18 20 21 21 21 22 20 19 19 19 19 19 19 20 21 22 23 24 24 24 24 24 24 24 24 23 23 22 21 21 20 20 19 19 18 18 17 17 17 16 16
18 18 18 17 19 20 21 20 20 19 18 17 17 18 19 20 21 20 21 22 23 23 23 24 24 24 23 23 23 22 22 22 21 20 20 20 19 19 18 18 17 17 16 16
17 17 17 17 19 19 20 20 20 19 17 17 17 17 18 19 17 17 19 20 22 22 22 22 22 23 23 22 22 22 22 21 21 21 21 20 19 19 18 18 17 17 16 16
18 17 17 17 17 18 18 19 20 19 17 17 17 18 18 17 16 17 18 19 20 21 21 21 21 21 21 21 21 21 21 20 20 20 20 19 19 18 18 17 17 16 16 15
17 16 16 16 17 17 18 17 18 17 17 17 18 18 18 17 17 18 18 18 19 19 20 20 20 20 20 20 20 20 19 19 19 19 18 18 18 17 17 17 16 16 15 15
16 16 15 16 16 17 17 17 18 19 18 18 18 18 18 17 17 17 17 17 17 18 18 18 18 18 18 18 18 18 18 18 18 17 17 17 17 16 16 16 15 15 15 15
17 16 15 15 16 16 17 18 18 18 18 18 18 17 17 17 16 16 16 16 16 16 16 16 17 17 16 16 16 16 16 16 16 16 15 15 15 15 15 14 14 14 14 14
18 16 15 15 15 15 16 17 18 18 18 18 17 17 17 17 16 16 16 15 15 15 15 15 15 15 14 14 14 14 14 14 14 14 13 13 13 13 13 13 13 13 13 13
17 17 16 15 15 14 16 18 18 18 18 18 17 17 16 16 16 16 15 15 15 14 14 14 14 13 13 13 13 13 13 13 13 12 12 12 12 12 12 12 12 12 12 12
Wind_Speed
3 0 7 13 10 10 6 3 1 2 1 2 2 3 6 6 5 5 5 6 8 8 6 8 9 10 10 9 10 9 8 6 5 4 4 4 3 3 3 4 7 8 7 8
4 9 17 15 10 5 4 2 1 1 0 1 2 2 4 6 7 7 8 8 9 9 8 10 10 9 9 10 10 9 9 8 6 4 4 3 3 3 3 3 5 7 7 7
9 12 10 5 2 3 3 4 4 4 3 4 2 2 1 2 3 6 6 7 8 12 13 12 11 9 10 11 11 10 9 8 7 6 4 3 3 3 2 2 2 3 6 6
7 6 5 5 2 3 1 4 5 6 4 2 2 2 4 3 4 6 8 8 9 10 11 11 12 11 12 11 10 10 9 8 7 7 5 5 4 3 3 3 3 2 4 5
7 4 4 3 2 3 5 3 5 5 5 4 3 1 6 1 4 7 9 10 11 11 13 13 13 13 12 11 11 10 9 8 8 7 7 7 5 4 3 3 3 1 1 2
7 4 3 4 3 4 9 6 6 5 5 4 3 0 6 4 7 7 9 11 12 13 13 13 12 10 10 10 10 10 10 9 8 8 8 8 8 6 5 3 2 1 1 0
6 5 4 1 1 2 4 5 5 7 6 3 4 1 8 9 7 9 12 13 13 13 13 13 12 12 12 12 12 11 11 10 9 9 8 9 9 8 6 5 3 2 1 1
3 7 4 2 4 5 3 7 6 2 3 3 2 4 8 9 7 9 11 12 14 14 14 15 16 15 14 14 14 13 13 11 10 10 9 8 8 6 5 5 5 4 4 3
4 6 4 2 1 5 2 2 6 6 3 1 4 6 8 3 4 8 11 11 14 15 16 16 16 15 14 14 14 15 14 11 11 10 9 8 8 8 7 6 5 4 4 4
6 2 5 3 5 4 3 4 6 5 4 2 3 4 5 6 8 10 12 14 15 15 15 16 15 15 14 14 12 12 13 13 10 10 9 9 9 8 8 7 6 6 5 5
3 3 4 5 3 2 3 3 5 4 5 6 4 7 8 12 12 12 15 15 16 16 17 16 15 14 13 11 11 12 12 11 10 10 9 9 9 8 8 7 8 7 6 6
2 5 0 3 3 2 3 3 5 4 2 4 4 8 8 12 12 13 14 15 14 15 15 15 13 12 11 12 13 13 13 12 12 11 10 10 9 9 8 8 8 8 7 7
3 6 3 6 7 5 1 2 4 6 4 3 4 7 5 7 9 11 13 13 13 12 12 11 11 13 13 13 13 13 13 13 11 11 10 10 9 9 9 9 8 8 8 7
4 4 6 6 8 6 4 3 2 5 4 4 6 7 7 6 8 9 11 12 11 11 12 12 12 13 13 13 13 13 13 12 12 11 11 11 11 11 10 9 9 9 8 8
5 3 3 5 6 4 5 5 3 2 6 6 6 7 9 8 8 8 8 8 9 10 11 14 14 13 12 12 12 12 12 12 11 11 12 12 11 10 10 9 9 9 9 9
4 3 0 4 4 3 4 4 2 1 1 2 4 7 7 2 1 1 4 8 10 11 12 13 13 13 14 15 14 13 13 12 11 12 13 12 10 10 10 10 10 9 9 9
2 4 2 4 5 2 4 5 3 3 4 1 2 4 3 5 4 1 1 5 7 8 9 11 13 15 15 16 16 16 15 12 12 13 12 11 11 11 11 11 10 10 10 9
5 4 4 1 3 3 6 2 6 10 7 6 2 3 5 5 2 4 4 3 3 3 4 6 8 10 11 12 12 13 11 12 13 12 12 11 11 12 11 10 11 11 9 9
4 6 3 3 2 4 3 2 1 4 4 6 5 7 7 5 7 9 9 7 5 4 2 2 4 5 6 7 9 9 10 11 11 12 12 12 12 12 11 11 11 10 8 9
5 5 5 3 2 5 5 4 1 7 2 4 3 5 7 7 5 5 9 8 8 7 5 3 2 3 1 3 4 8 9 9 12 13 13 11 11 11 12 12 11 8 8 10
3 3 3 3 3 4 4 5 2 4 5 3 0 2 4 4 3 1 5 7 8 8 7 6 5 5 3 2 3 3 3 8 11 9 8 8 10 11 11 10 8 8 8 8
5 3 2 3 2 6 3 1 4 7 5 4 3 3 4 5 5 4 6 8 10 10 11 9 8 8 7 7 5 4 3 5 4 3 4 6 7 8 8 8 8 7 8 9
5 7 6 6 6 4 3 5 4 6 6 4 5 4 7 8 6 6 7 8 9 10 11 10 10 10 11 10 8 7 7 7 5 3 2 3 3 4 4 6 8 7 7 8
4 4 4 2 2 1 1 1 3 5 5 5 6 7 8 9 8 8 7 7 8 9 9 9 10 11 10 9 9 8 7 7 7 6 5 5 4 5 4 4 5 6 7 8
5 5 5 4 3 2 1 2 5 6 7 9 10 10 10 11 9 8 7 6 6 7 7 7 8 8 8 8 7 7 7 7 7 6 6 6 5 6 6 6 7 8 9 10
3 7 8 8 10 8 7 6 7 9 8 10 12 10 9 9 8 7 6 5 5 6 6 7 7 6 6 7 7 7 6 6 5 5 5 5 5 6 6 7 9 12 14 17
Wind_Direction
278 282 263 258 234 217 215 183 216 253 186 87 135 180 194 198 202 204 198 193 179 180 174 162 156 151 147 143 141 142 141 147 136 123 120 123 137 153 155 160 147 138 121 104
329 275 259 260 257 221 183 139 137 311 162 107 134 183 188 196 205 201 196 194 181 171 171 164 163 164 161 159 157 155 157 159 156 148 149 155 152 160 161 155 151 152 139 128
232 257 274 296 249 141 119 157 179 182 107 52 80 358 247 218 209 210 204 188 177 176 177 174 174 178 168 169 171 170 171 167 165 154 130 101 82 78 85 116 154 180 163 149
257 267 322 346 323 103 172 195 155 140 113 14 43 316 286 213 216 207 200 192 189 183 182 183 183 179 178 181 178 172 173 172 170 157 148 147 146 151 175 174 183 200 183 173
275 296 323 314 252 148 167 130 86 96 106 68 21 27 294 199 208 213 203 197 195 189 187 189 188 187 188 184 180 178 175 178 175 164 155 143 140 149 148 138 147 182 256 212
263 270 244 239 244 147 128 86 64 54 68 40 315 55 285 241 214 201 197 194 192 190 192 193 192 188 191 187 184 181 178 183 177 169 163 158 157 157 149 152 167 209 295 296
305 299 282 215 74 49 101 85 28 7 18 286 282 267 256 245 216 198 194 195 194 191 191 192 192 192 193 191 189 186 182 185 180 172 171 170 167 165 167 176 182 182 186 182
260 289 271 222 179 190 201 133 145 198 225 270 298 262 265 261 224 198 189 188 190 193 195 196 198 196 197 194 191 188 185 185 180 176 178 175 167 160 166 171 170 178 188 197
195 261 290 237 187 144 149 161 162 136 129 102 283 290 304 294 182 184 186 186 193 197 198 200 200 199 197 193 192 189 185 182 181 180 175 173 169 166 170 173 174 179 189 189
170 238 312 327 42 22 152 146 87 99 145 206 270 265 243 237 208 190 188 193 198 197 198 200 200 200 198 194 190 184 181 181 181 177 176 180 181 180 179 178 185 191 197 192
136 145 325 19 50 298 29 53 91 113 151 156 219 257 222 212 209 197 198 198 197 198 198 199 200 198 193 184 177 177 177 174 176 179 179 175 184 187 185 190 200 203 206 205
144 122 76 295 280 263 136 145 138 140 232 174 188 261 248 204 210 201 201 203 201 200 199 197 192 186 181 179 178 178 178 179 182 180 177 180 185 185 188 199 208 207 211 212
125 109 73 345 333 340 13 175 157 139 133 171 186 261 275 215 210 207 203 202 200 196 190 186 181 180 181 180 180 180 182 185 183 178 179 183 187 189 197 205 208 208 208 211
112 115 155 200 233 236 254 253 195 134 156 222 225 253 276 243 212 213 205 196 187 185 181 178 180 183 183 183 182 184 189 188 183 181 183 189 196 198 203 207 208 208 206 208
106 140 209 230 231 205 225 239 231 205 192 197 258 266 259 242 215 209 198 181 170 172 176 180 182 186 186 186 188 190 192 191 186 184 191 200 202 201 203 206 209 210 210 214
104 155 299 304 273 248 277 279 289 315 297 256 279 275 272 224 95 144 171 167 172 181 186 187 186 185 188 191 193 193 196 195 187 190 200 201 198 201 205 208 209 211 216 219
131 137 127 275 292 28 289 250 191 77 12 23 188 261 342 57 64 25 199 167 176 183 186 191 192 192 195 196 193 195 198 191 188 196 200 197 196 202 208 210 208 214 218 218
143 132 142 222 16 268 259 290 117 102 54 23 29 4 54 89 103 42 29 81 107 144 169 191 204 209 207 201 197 197 189 186 192 197 200 198 197 204 207 207 212 217 215 216
125 133 130 132 196 269 299 341 132 125 52 6 11 29 39 41 48 28 11 29 55 64 85 192 207 209 209 211 208 193 192 191 194 202 206 204 200 204 205 210 217 217 214 220
46 89 123 133 166 234 244 282 211 104 72 321 356 32 31 39 52 356 349 6 26 32 32 35 37 53 42 244 201 189 201 199 208 212 212 206 201 204 209 215 218 216 215 224
5 29 119 154 192 252 261 299 57 127 217 240 50 70 66 86 148 227 5 20 16 25 28 32 46 47 8 355 98 160 203 224 230 226 216 210 209 212 215 217 218 216 218 225
176 160 179 130 185 244 235 359 177 186 173 172 156 154 125 120 112 71 47 42 34 33 31 35 45 36 23 30 55 51 332 285 272 229 223 227 227 227 225 221 224 221 220 228
185 181 176 180 212 242 187 196 192 149 152 168 179 178 141 116 96 79 63 51 43 40 35 33 40 35 28 31 43 37 1 5 18 18 330 292 279 262 246 229 231 232 228 233
233 154 131 161 240 212 170 142 144 143 144 148 139 131 116 109 99 84 70 57 48 40 36 35 42 41 29 24 35 29 18 29 36 24 3 347 330 308 289 265 248 243 242 243
225 149 134 145 165 102 296 154 133 125 115 108 103 101 106 104 96 88 74 59 49 41 34 38 42 42 31 27 27 21 25 33 30 17 4 349 334 316 305 291 269 258 251 249
226 176 170 192 186 167 188 178 138 125 123 115 106 91 87 94 94 84 72 58 52 44 35 33 32 36 26 23 18 7 11 28 31 8 348 334 325 316 309 304 302 283 271 270
Height
1512 1517 1520 1511 1508 1510 1511 1516 1519 1516 1511 1514 1517 1518 1518 1517 1518 1518 1520 1522 1525 1527 1529 1531 1533 1536 1539 1541 1543 1545 1547 1550 1551 1552 1553 1554 1554 1554 1553 1552 1552 1551 1550 1549
1517 1518 1504 1499 1499 1503 1508 1515 1518 1514 1510 1515 1519 1519 1516 1516 1516 1518 1520 1521 1522 1525 1529 1531 1533 1535 1538 1540 1542 1544 1546 1549 1550 1551 1552 1553 1553 1553 1552 1551 1551 1550 1549 1548
1517 1507 1496 1496 1498 1504 1509 1514 1515 1516 1514 1516 1519 1524 1520 1517 1516 1518 1519 1520 1522 1524 1527 1530 1532 1534 1536 1538 1541 1543 1545 1547 1549 1550 1551 1551 1551 1551 1550 1550 1549 1549 1548 1548
1506 1497 1495 1497 1499 1503 1513 1505 1505 1511 1522 1531 1527 1537 1523 1519 1518 1517 1518 1519 1521 1523 1526 1528 1530 1532 1534 1537 1539 1542 1544 1546 1547 1548 1549 1549 1549 1549 1549 1548 1548 1548 1547 1547
1504 1497 1496 1499 1496 1497 1505 1503 1507 1514 1524 1533 1532 1537 1529 1518 1519 1516 1516 1516 1518 1521 1523 1526 1528 1530 1533 1535 1538 1540 1542 1544 1545 1546 1547 1547 1547 1547 1547 1547 1546 1546 1546 1545
1497 1493 1492 1492 1491 1492 1499 1508 1515 1523 1531 1544 1537 1537 1532 1519 1513 1511 1512 1514 1516 1519 1522 1524 1527 1529 1532 1534 1536 1538 1540 1542 1543 1544 1545 1545 1545 1545 1544 1544 1544 1544 1544 1543
1502 1495 1490 1489 1494 1497 1501 1519 1538 1542 1551 1548 1533 1532 1528 1507 1503 1505 1507 1510 1513 1516 1519 1522 1525 1527 1529 1532 1533 1535 1537 1539 1540 1542 1542 1542 1542 1542 1542 1542 1542 1542 1541 1541
1514 1512 1493 1489 1493 1500 1501 1513 1536 1549 1552 1546 1534 1534 1517 1499 1498 1500 1503 1506 1510 1513 1516 1518 1521 1523 1526 1528 1530 1532 1534 1536 1537 1539 1539 1539 1539 1539 1539 1539 1539 1539 1539 1539
1513 1509 1489 1487 1487 1491 1500 1508 1511 1530 1539 1546 1538 1526 1509 1497 1497 1499 1501 1504 1507 1509 1512 1514 1517 1520 1522 1524 1526 1529 1530 1533 1534 1536 1536 1536 1536 1537 1537 1537 1537 1537 1537 1537
1498 1506 1495 1488 1488 1491 1493 1499 1515 1530 1545 1548 1539 1531 1523 1504 1500 1498 1499 1501 1502 1505 1508 1510 1513 1516 1518 1521 1523 1526 1528 1530 1531 1532 1533 1533 1534 1534 1534 1534 1534 1534 1534 1534
1492 1506 1504 1497 1500 1501 1498 1502 1511 1525 1531 1544 1548 1531 1498 1496 1493 1494 1494 1495 1497 1500 1503 1506 1509 1512 1515 1518 1520 1522 1524 1526 1528 1529 1530 1530 1531 1531 1531 1531 1531 1532 1532 1531
1490 1505 1513 1505 1496 1493 1495 1501 1510 1525 1529 1531 1536 1523 1483 1484 1484 1487 1488 1490 1493 1496 1499 1502 1505 1508 1511 1514 1516 1519 1521 1523 1524 1526 1526 1527 1528 1528 1528 1528 1528 1529 1528 1528
1489 1505 1522 1520 1513 1500 1498 1498 1502 1511 1522 1529 1531 1516 1480 1480 1481 1483 1484 1486 1489 1492 1496 1499 1502 1505 1507 1510 1513 1515 1517 1519 1521 1522 1523 1524 1524 1524 1525 1525 1525 1525 1525 1525
1484 1500 1513 1520 1515 1503 1500 1496 1496 1506 1519 1521 1515 1505 1488 1482 1480 1480 1481 1482 1485 1489 1492 1495 1498 1501 1504 1506 1509 1511 1513 1515 1517 1518 1519 1519 1520 1521 1521 1521 1521 1521 1521 1520
1483 1496 1495 1495 1492 1493 1494 1492 1492 1497 1502 1508 1502 1497 1488 1481 1478 1477 1478 1480 1483 1486 1489 1492 1494 1497 1500 1503 1505 1507 1509 1511 1512 1513 1514 1515 1516 1517 1517 1517 1517 1517 1516 1516
1483 1492 1493 1495 1490 1490 1491 1488 1487 1489 1490 1492 1493 1492 1481 1476 1477 1478 1479 1480 1482 1484 1487 1489 1491 1494 1496 1498 1500 1502 1504 1506 1507 1508 1509 1510 1511 1512 1512 1512 1513 1512 1512 1512
1487 1493 1500 1505 1494 1493 1501 1491 1487 1491 1491 1491 1496 1492 1482 1479 1480 1481 1481 1481 1482 1483 1485 1487 1489 1490 1492 1494 1495 1497 1499 1501 1502 1503 1504 1505 1506 1507 1507 1508 1508 1507 1507 1507
1485 1493 1502 1506 1503 1510 1498 1484 1484 1490 1495 1492 1490 1487 1482 1483 1484 1483 1483 1483 1482 1483 1485 1486 1487 1488 1489 1491 1492 1493 1495 1496 1497 1498 1499 1500 1501 1501 1502 1502 1502 1502 1502 1501
1479 1489 1500 1508 1511 1504 1492 1487 1487 1491 1498 1494 1492 1487 1484 1483 1482 1485 1486 1485 1484 1483 1484 1484 1485 1485 1486 1487 1488 1489 1490 1491 1492 1492 1493 1494 1494 1495 1495 1495 1495 1496 1496 1495
1483 1486 1498 1506 1510 1510 1495 1484 1482 1488 1501 1495 1491 1488 1486 1484 1491 1494 1489 1487 1485 1484 1483 1483 1483 1483 1483 1483 1484 1485 1485 1486 1486 1487 1487 1488 1489 1489 1489 1489 1489 1490 1490 1489
1492 1495 1499 1504 1508 1499 1487 1483 1483 1499 1499 1491 1489 1488 1486 1488 1492 1494 1490 1488 1487 1485 1483 1483 1482 1481 1480 1480 1480 1480 1480 1481 1482 1482 1483 1483 1483 1483 1483 1484 1484 1483 1483 1482
1493 1498 1501 1504 1507 1502 1483 1484 1486 1487 1485 1486 1487 1488 1488 1489 1490 1491 1490 1488 1487 1485 1484 1483 1481 1480 1479 1479 1478 1477 1477 1477 1478 1478 1478 1478 1478 1478 1478 1478 1477 1477 1476 1475
1485 1485 1489 1492 1493 1482 1479 1480 1481 1481 1482 1484 1486 1489 1489 1489 1490 1491 1491 1489 1488 1487 1485 1484 1483 1481 1479 1478 1477 1477 1476 1475 1475 1474 1473 1473 1473 1473 1472 1472 1471 1470 1469 1467
1477 1476 1482 1485 1483 1481 1480 1481 1482 1482 1483 1486 1488 1489 1489 1490 1491 1492 1491 1490 1489 1488 1486 1485 1483 1481 1480 1479 1478 1477 1475 1474 1473 1472 1471 1470 1469 1468 1467 1465 1464 1463 1461 1459
1470 1473 1479 1483 1482 1482 1482 1482 1482 1484 1486 1487 1488 1490 1490 1491 1492 1492 1492 1491 1490 1489 1488 1486 1484 1483 1481 1479 1478 1476 1475 1473 1471 1470 1468 1466 1464 1462 1460 1459 1457 1455 1453 1452
1464 1466 1471 1473 1472 1476 1479 1480 1483 1484 1486 1487 1488 1490 1491 1492 1492 1492 1492 1492 1491 1490 1489 1487 1485 1483 1481 1479 1477 1475 1473 1471 1469 1467 1465 1462 1460 1458 1455 1452 1449 1447 1445 1443